sat.trackr.live / text

‹ back to catalog

STARLINK-34170

NORAD 63955 · 2025-099D

PAYLOAD ACTIVE UNKNOWN

§ Identity

Operator
Country
US
Launch date
2025-05-13
Launch site
AFETR
Launch vehicle
Mass (kg)
RCS (m²)

Purposes: comms

External: N2YO · Heavens-Above · Gunter

§ Orbital elements

Epoch: 2026-05-24T22:31:30.464256Z

Period
94.27 min
Inclination
42.9999°
Eccentricity
0.0000858
Mean motion
15.27591752 rev/d
Perigee alt
482.4 km
Apogee alt
483.6 km
Semi-major
6,861.2 km
B*
4.7960e-4
RAAN
105.9510°
Arg perigee
255.9044°
Mean anomaly
104.1712°
Rev number
5,898

§ Raw data

STARLINK-341701 63955U 25099D   26144.93854704  .00012963  00000+0  47960-3 0  99992 63955  42.9999 105.9510 0000858 255.9044 104.1712 15.27591752 58983

JSON: /api/v1/satellites/63955 · /tle

For live sub-satellite position, see the globe view (requires WebGL).

§ Visibility from observer

Set your observer location to see the next 7 days of passes ≥ 10°. The values pass through the URL so the page stays shareable.

No JS? Fill the form by hand. The geolocation button needs JavaScript.